Weather History for Sacramento, CA

Change the Weather History Date:

Sunday, February 10, 2013

  Actual Average Record
Temperature  
Mean Temperature 46 °F -  
Max Temperature 61 °F 59 °F 73 °F (1988)
Min Temperature 30 °F 41 °F 29 °F (2009)
Degree Days  
Heating Degree Days 19    
Cooling Degree Days 0    
Moisture  
Dew Point 33 °F    
Average Humidity 64    
Maximum Humidity 89    
Minimum Humidity 39    
Precipitation  
Precipitation 0.00 in 0.12 in 1.53 in (1962)
Month to date precipitation 0.02 1.27  
Year to date precipitation 0.98 4.91  
Since 1 July precipitation 12.27 11.53  
Sea Level Pressure  
Sea Level Pressure 30.08 in    
Wind  
Wind Speed 3 mph (NW)    
Max Wind Speed 15 mph    
Max Gust Speed 18 mph    
Visibility 10 miles    
Events      
T = Trace of Precipitation, MM = Missing Value Source: NWS Daily Summary

Daily Weather History Graph

Daily Weather History Graph

Search for Another Location

Airport:

Trip Planner

Search our weather history database for the weather conditions in past years. The results will help you decide how hot, cold, wet, or windy it might be!

Date:

Astronomy

Feb. 10, 2013 Rise Set
Actual Time 7:02 AM PST 5:38 PM PST
Civil Twilight 6:34 AM PST 6:06 PM PST
Nautical Twilight 6:03 AM PST 6:37 PM PST
Astronomical Twilight 5:32 AM PST 7:08 PM PST
Moon 6:56 AM PST 6:34 PM PST
Length of Visible Light 11h 31m
Length of Day
10h 36m
New Moon, 0% of the Moon is Illuminated
Feb 10
New Moon
Feb 17
First Quarter
Feb 25
Full
Mar 4
Last Quarter
Mar 11
New

Hourly Weather History & Observations

Time (PST) Temp. Windchill Dew Point Humidity Pressure Visibility Wind Dir Wind Speed Gust Speed Precip Events Conditions
12:53 AM 37.0 °F 34.5 °F 28.9 °F 73% 30.10 in 10.0 mi SSE 3.5 mph - N/A   Clear
1:53 AM 37.9 °F 35.5 °F 32.0 °F 79% 30.10 in 10.0 mi East 3.5 mph - N/A   Clear
2:53 AM 37.0 °F - 30.9 °F 79% 30.10 in 10.0 mi Calm Calm - N/A   Clear
3:53 AM 37.0 °F - 30.9 °F 79% 30.10 in 10.0 mi Calm Calm - N/A   Clear
4:53 AM 33.1 °F - 30.0 °F 89% 30.11 in 7.0 mi Calm Calm - N/A   Clear
5:53 AM 33.1 °F - 28.9 °F 85% 30.11 in 10.0 mi Calm Calm - N/A   Clear
6:53 AM 32.0 °F - 28.0 °F 85% 30.13 in 10.0 mi Calm Calm - N/A   Clear
7:53 AM 34.0 °F - 30.0 °F 85% 30.13 in 6.0 mi Calm Calm - N/A   Clear
8:53 AM 42.1 °F - 35.1 °F 76% 30.15 in 9.0 mi Calm Calm - N/A   Clear
9:53 AM 46.9 °F - 35.1 °F 63% 30.14 in 10.0 mi Calm Calm - N/A   Clear
10:53 AM 48.9 °F - 34.0 °F 56% 30.12 in 10.0 mi WNW 4.6 mph - N/A   Clear
11:53 AM 53.1 °F - 35.1 °F 50% 30.09 in 10.0 mi Variable 5.8 mph - N/A   Clear
12:53 PM 54.0 °F - 34.0 °F 47% 30.06 in 10.0 mi Variable 6.9 mph - N/A   Clear
1:53 PM 57.0 °F - 36.0 °F 45% 30.03 in 10.0 mi NW 9.2 mph - N/A   Clear
2:53 PM 60.1 °F - 35.1 °F 39% 30.02 in 10.0 mi North 15.0 mph - N/A   Clear
3:53 PM 61.0 °F - 34.0 °F 36% 30.01 in 10.0 mi NNW 9.2 mph - N/A   Clear
4:53 PM 60.1 °F - 33.1 °F 36% 30.01 in 10.0 mi NNW 10.4 mph - N/A   Clear
5:53 PM 51.1 °F - 34.0 °F 52% 30.01 in 10.0 mi Calm Calm - N/A   Clear
6:53 PM 51.1 °F - 33.1 °F 50% 30.02 in 10.0 mi WSW 3.5 mph - N/A   Clear
7:53 PM 48.2 °F - 32.0 °F 54% 30.03 in 10.0 mi Calm Calm - N/A   Clear
8:53 PM 43.0 °F 40.3 °F 34.0 °F 71% 30.05 in 10.0 mi WSW 4.6 mph - N/A   Clear
9:53 PM 42.1 °F 40.2 °F 33.1 °F 70% 30.06 in 10.0 mi NE 3.5 mph - N/A   Clear
10:53 PM 39.9 °F 35.8 °F 33.1 °F 77% 30.07 in 10.0 mi West 5.8 mph - N/A   Clear
11:53 PM 39.9 °F 36.7 °F 32.0 °F 73% 30.07 in 10.0 mi WNW 4.6 mph - N/A   Clear